"2010-09-24 00:00:00",187501,2.741,339.1,5.443,0.365,18.04,108.0661,19.93,20.79,14.61,0,110.9,13.2,20.75,301.1
"2010-09-24 00:00:30",187502,1.349,355.4,13.28,0.514,18.13,108.0661,19.93,20.78,14.63,0,110.9,13.2,20.75,317.4
"2010-09-24 00:01:00",187503,2.121,13.7,8.87,0.906,18.03,108.0661,19.93,20.77,15.28,0,110.9,13.2,20.75,335.7
"2010-09-24 00:01:30",187504,2.383,11.15,5.912,0.591,17.99,108.0751,19.95,20.79,15.4,0,110.9,13.2,20.77,333.1
"2010-09-24 00:02:00",187505,1.484,6.727,13.79,0.888,18.05,108.0996,20.02,20.81,15.6,0,110.9,13.2,20.84,328.7
"2010-09-24 00:02:30",187506,2.965,16.29,9.29,0.863,17.93,108.0999,20.02,20.83,15.88,0,110.9,13.2,20.84,338.3
"2010-09-24 00:03:00",187507,2.674,356.7,9.13,0.87,18.09,108.0999,20.02,20.84,15.29,0,110.9,13.2,20.84,318.7
"2010-09-24 00:03:30",187508,2.456,11.16,10.64,0.68,18.03,108.0999,20.02,20.83,15.17,0,110.9,13.2,20.84,333.2
"2010-09-24 00:04:00",187509,1.798,6.237,8.72,0.479,18.11,108.1067,20.03,20.83,15.2,0,110.9,13.2,20.86,328.2
"2010-09-24 00:04:30",187510,1.807,9.15,9.38,0.595,18.07,108.1283,20.09,20.87,15.18,0,110.9,13.2,20.91,331.1
"2010-09-24 00:05:00",187511,1.492,7.386,7.576,0.328,18.03,108.1337,20.1,20.88,15.17,0,110.9,13.2,20.92,329.4
"2010-09-24 00:05:30",187512,1.87,5.916,7.183,0.429,18.04,108.1337,20.1,20.9,14.96,0,110.9,13.2,20.92,327.9
"2010-09-24 00:06:00",187513,2.374,359.8,5.711,0.82,18.02,108.1379,20.11,20.92,15.21,0,110.9,13.2,20.94,321.8
"2010-09-24 00:06:30",187514,3.458,356.4,3.496,0.458,18.04,108.1339,20.1,20.93,15.43,0,110.9,13.2,20.93,318.4
"2010-09-24 00:07:00",187515,2.778,0.388,3.105,0.327,18.1,108.1337,20.1,20.94,15.14,0,110.9,13.2,20.92,322.4
"2010-09-24 00:07:30",187516,3.83,355.7,2.47,0.475,18.15,108.1337,20.1,20.93,15.07,0,110.9,13.19,20.92,317.7
"2010-09-24 00:08:00",187517,3.46,358.1,5.204,0.654,18.16,108.1337,20.1,20.93,15.11,0,110.9,13.19,20.92,320.1
"2010-09-24 00:08:30",187518,2.719,3.95,4.527,0.432,18.12,108.1337,20.1,20.94,15.28,0,110.9,13.19,20.92,326.0
"2010-09-24 00:09:00",187519,5.09,351.6,4.272,1.035,18.12,108.1328,20.1,20.93,15.3,0,110.9,13.19,20.92,313.6
"2010-09-24 00:09:30",187520,5.89,345.8,3.05,0.435,18.08,108.1089,20.04,20.91,15.31,0,110.9,13.19,20.86,307.8
"2010-09-24 00:10:00",187521,6.891,341.9,2.51,0.327,18.13,108.0999,20.02,20.9,15.38,0,110.9,13.19,20.84,303.9
"2010-09-24 00:10:30",187522,5.581,348,6.181,0.848,18.23,108.0839,19.97,20.86,15.56,0,110.9,13.19,20.80,310.0
"2010-09-24 00:11:00",187523,4.436,357.6,4.489,0.689,18.29,108.0664,19.93,20.86,15.52,0,110.9,13.2,20.75,319.6
"2010-09-24 00:11:30",187524,4.78,353,5.801,0.868,18.27,108.0704,19.94,20.85,15.2,0,110.9,13.2,20.76,315.0
"2010-09-24 00:12:00",187525,4.498,349.9,1.966,0.301,18.27,108.0667,19.93,20.83,15.29,0,110.9,13.2,20.75,311.9
"2010-09-24 00:12:30",187526,4.193,355.2,11.02,0.796,18.31,108.0661,19.93,20.83,15.25,0,110.9,13.2,20.75,317.2
"2010-09-24 00:13:00",187527,4.225,359.3,10.29,0.597,18.43,108.0661,19.93,20.8,15.1,0,110.9,13.2,20.75,321.3
"2010-09-24 00:13:30",187528,2.855,10.83,6.366,0.814,18.54,108.0673,19.93,20.8,15.04,0,110.9,13.2,20.75,332.8
"2010-09-24 00:14:00",187529,2.053,7.407,6.824,0.395,18.58,108.0839,19.97,20.82,15.49,0,110.9,13.2,20.80,329.4
"2010-09-24 00:14:30",187530,1.9,6.463,6.537,0.609,18.58,108.0926,20,20.83,15.53,0,110.9,13.2,20.82,328.5
"2010-09-24 00:15:00",187531,3.775,1.44,5.157,0.651,18.5,108.0864,19.98,20.83,15.62,0,110.9,13.2,20.80,323.4
"2010-09-24 00:15:30",187532,5.708,355.6,3.499,0.732,18.41,108.0746,19.95,20.83,15.82,0,110.9,13.2,20.77,317.6
"2010-09-24 00:16:00",187533,7.121,350.1,1.472,0.642,18.48,108.0661,19.93,20.83,15.78,0,110.9,13.2,20.75,312.1
"2010-09-24 00:16:30",187534,7.588,347.4,1.592,0.233,18.43,108.0659,19.93,20.81,15.66,0,110.9,13.2,20.75,309.4
"2010-09-24 00:17:00",187535,7.169,347.6,2.936,0.541,18.37,108.0515,19.89,20.79,15.78,0,110.9,13.2,20.71,309.6
"2010-09-24 00:17:30",187536,5.32,354.8,3.672,0.945,18.5,108.0338,19.85,20.77,15.8,0,110.9,13.2,20.67,316.8
"2010-09-24 00:18:00",187537,5.071,356.2,2.448,0.7,18.53,108.0324,19.84,20.76,15.69,0,110.9,13.2,20.66,318.2
"2010-09-24 00:18:30",187538,3.959,4.113,5.724,0.685,18.4,108.0394,19.86,20.75,15.74,0,110.9,13.2,20.68,326.1
"2010-09-24 00:19:00",187539,4.401,359.7,4.813,0.742,18.38,108.0574,19.91,20.76,15.66,0,110.9,13.2,20.73,321.7
"2010-09-24 00:19:30",187540,5.887,351.1,6.511,0.688,18.32,108.0647,19.93,20.76,15.67,0,110.9,13.2,20.75,313.1
"2010-09-24 00:20:00",187541,5.966,344.7,5.26,0.536,18.36,108.0569,19.91,20.77,15.73,0,110.9,13.2,20.73,306.7
"2010-09-24 00:20:30",187542,4.883,353.2,4.701,0.86,18.49,108.0509,19.89,20.76,15.73,0,110.9,13.2,20.71,315.2
"2010-09-24 00:21:00",187543,3.875,1.413,4.402,0.879,18.41,108.0566,19.9,20.78,15.62,0,110.9,13.2,20.73,323.4
"2010-09-24 00:21:30",187544,6.188,352.8,2.685,0.843,18.44,108.0661,19.93,20.77,15.7,0,110.9,13.2,20.75,314.8
"2010-09-24 00:22:00",187545,6.964,352.3,3.917,1.015,18.51,108.0616,19.92,20.78,16.03,0,110.9,13.2,20.74,314.3
"2010-09-24 00:22:30",187546,9.07,348.1,1.768,0.382,18.6,108.0549,19.9,20.76,16.1,0,110.9,13.2,20.72,310.1
"2010-09-24 00:23:00",187547,8.8,348.8,1.158,0.349,18.6,108.0524,19.89,20.76,16.07,0,110.9,13.2,20.72,310.8
"2010-09-24 00:23:30",187548,7.294,352.6,2.997,1.165,18.57,108.0417,19.87,20.77,16.13,0,110.9,13.2,20.69,314.6
"2010-09-24 00:24:00",187549,7.517,350.5,3.778,0.973,18.52,108.0327,19.84,20.76,16.21,0,110.9,13.2,20.66,312.5
"2010-09-24 00:24:30",187550,6.325,354.7,4.589,1.576,18.52,108.0324,19.84,20.75,16.3,0,110.9,13.2,20.66,316.7
"2010-09-24 00:25:00",187551,6.771,352,7.309,1.896,18.51,108.0324,19.84,20.75,16.39,0,110.9,13.2,20.66,314.0
"2010-09-24 00:25:30",187552,8.89,347.7,3.369,0.765,18.66,108.0302,19.84,20.73,16.27,0,110.9,13.2,20.66,309.7
"2010-09-24 00:26:00",187553,7.25,353.7,2.421,1.197,18.7,108.0321,19.84,20.72,16.21,0,110.9,13.2,20.66,315.7
"2010-09-24 00:26:30",187554,9.33,347.4,5.142,1.832,18.61,108.0313,19.84,20.73,16.33,0,110.9,13.2,20.66,309.4
"2010-09-24 00:27:00",187555,9.32,348.4,1.921,0.732,18.66,108.0228,19.82,20.72,16.34,0,110.9,13.2,20.64,310.4
"2010-09-24 00:27:30",187556,8.18,351.7,3.021,1.233,18.69,108.0088,19.78,20.72,16.37,0,110.9,13.2,20.60,313.7
"2010-09-24 00:28:00",187557,10.21,348.8,2.25,0.892,18.71,108.0017,19.76,20.7,16.34,0,110.9,13.2,20.58,310.8
"2010-09-24 00:28:30",187558,11.18,346.4,1.022,0.206,18.79,107.9986,19.76,20.7,16.51,0,110.8,13.2,20.58,308.4
"2010-09-24 00:29:00",187559,9.16,348.4,1.94,0.613,18.73,107.9986,19.76,20.69,16.48,0,110.8,13.2,20.58,310.4
"2010-09-24 00:29:30",187560,7.309,354.2,3.066,1.182,18.75,107.9989,19.76,20.69,16.28,0,110.8,13.2,20.58,316.2
"2010-09-24 00:30:00",187561,10.41,348.5,2.877,1.262,18.74,107.9986,19.76,20.69,16.2,0,110.8,13.2,20.58,310.5
"2010-09-24 00:30:30",187562,7.566,355,4.404,2.055,18.75,107.9989,19.76,20.7,16.23,0,110.8,13.21,20.58,317.0
"2010-09-24 00:31:00",187563,10.51,346.3,4.503,1.071,18.73,108.0003,19.76,20.69,16.15,0,110.8,13.21,20.58,308.3
"2010-09-24 00:31:30",187564,10.24,347.9,3.457,1.091,18.77,107.9986,19.76,20.7,16.14,0,110.8,13.21,20.58,309.9
"2010-09-24 00:32:00",187565,9.2,347.9,4.026,1.112,18.77,107.9986,19.76,20.7,16.14,0,110.8,13.21,20.58,309.9
"2010-09-24 00:32:30",187566,7.33,352,4.507,1.856,18.68,107.9986,19.76,20.68,16.26,0,110.8,13.21,20.58,314.0
"2010-09-24 00:33:00",187567,10.12,344.7,3.073,0.5,18.67,107.9986,19.76,20.68,16.33,0,110.8,13.21,20.58,306.7
"2010-09-24 00:33:30",187568,10.01,343,2.75,0.501,18.66,107.9986,19.76,20.67,16.42,0,110.8,13.21,20.58,305.0
"2010-09-24 00:34:00",187569,9.38,346.7,3.578,0.941,18.72,107.9927,19.74,20.66,16.43,0,110.8,13.21,20.56,308.7
"2010-09-24 00:34:30",187570,6.857,351.9,5.469,1.98,18.64,107.9747,19.69,20.63,16.45,0,110.8,13.2,20.52,313.9
"2010-09-24 00:35:00",187571,5.202,356.7,6.505,1.432,18.61,107.9658,19.67,20.63,16.48,0,110.8,13.21,20.49,318.7
"2010-09-24 00:35:30",187572,6.185,348.7,5.236,0.97,18.55,107.9649,19.67,20.61,16.54,0,110.8,13.21,20.49,310.7
"2010-09-24 00:36:00",187573,9.85,345.1,1.922,1.123,18.71,107.9658,19.67,20.61,16.74,0,110.8,13.21,20.49,307.1
"2010-09-24 00:36:30",187574,10.56,347.8,2.821,0.954,18.88,107.9664,19.67,20.59,16.68,0,110.8,13.21,20.49,309.8
"2010-09-24 00:37:00",187575,10.61,345.9,2.377,0.375,18.93,107.9685,19.68,20.57,16.48,0,110.8,13.21,20.50,307.9
"2010-09-24 00:37:30",187576,11.42,341.9,1.703,0.261,18.9,107.968,19.68,20.58,16.65,0,110.8,13.21,20.50,303.9
"2010-09-24 00:38:00",187577,10.6,341.7,2,0.411,18.93,107.9716,19.69,20.59,16.53,0,110.8,13.21,20.51,303.7
"2010-09-24 00:38:30",187578,10.52,342.7,1.614,0.275,19.02,107.974,19.69,20.57,16.51,0,110.8,13.21,20.51,304.7
"2010-09-24 00:39:00",187579,10.87,345,2.497,0.51,19.03,107.9764,19.7,20.59,16.43,0,110.8,13.21,20.52,307.0
"2010-09-24 00:39:30",187580,11.31,349,1.574,0.459,19.11,107.9831,19.72,20.6,16.24,0,110.8,13.21,20.54,311.0
"2010-09-24 00:40:00",187581,10.17,351.1,1.796,1.032,19.04,107.9871,19.73,20.58,16.28,0,110.8,13.2,20.55,313.1
"2010-09-24 00:40:30",187582,9.02,352.7,1.516,0.728,19.1,107.988,19.73,20.59,16.35,0,110.8,13.21,20.55,314.7
"2010-09-24 00:41:00",187583,9.68,352.5,1.312,0.573,19.08,107.9901,19.73,20.58,16.27,0,110.8,13.2,20.56,314.5
"2010-09-24 00:41:30",187584,10.47,349.8,2.409,0.945,19.17,107.991,19.74,20.59,16.41,0,110.8,13.2,20.56,311.8
"2010-09-24 00:42:00",187585,9.79,350.1,2.207,1.077,19.16,107.9922,19.74,20.59,16.37,0,110.8,13.2,20.56,312.1
"2010-09-24 00:42:30",187586,9.05,351,1.293,0.847,19.08,107.9931,19.74,20.61,16.13,0,110.8,13.2,20.56,313.0
"2010-09-24 00:43:00",187587,7.431,353.4,1.27,0.485,19.06,107.9944,19.75,20.59,16.06,0,110.8,13.2,20.57,315.4
"2010-09-24 00:43:30",187588,5.808,355,2.73,1.012,19.05,107.995,19.75,20.6,16.22,0,110.8,13.21,20.57,317.0
"2010-09-24 00:44:00",187589,5.048,357.7,4.126,1.326,19.03,107.9977,19.75,20.61,16.34,0,110.8,13.2,20.57,319.7
"2010-09-24 00:44:30",187590,5.071,359.8,4.181,0.851,18.94,108.0004,19.76,20.61,16.31,0,110.8,13.21,20.58,321.8
"2010-09-24 00:45:00",187591,5.777,359.3,7.986,1.459,18.94,107.9998,19.76,20.61,16.39,0,110.8,13.21,20.58,321.3
"2010-09-24 00:45:30",187592,5.223,12.67,5.68,1.326,18.94,107.9998,19.76,20.62,16.36,0,110.8,13.21,20.58,334.7
"2010-09-24 00:46:00",187593,4.489,3.115,5.829,1.007,18.96,108.0013,19.76,20.61,16.33,0,110.8,13.21,20.58,325.1
"2010-09-24 00:46:30",187594,5.066,0.552,6.507,1.668,18.98,108.0007,19.76,20.6,16.33,0,110.8,13.21,20.58,322.6
"2010-09-24 00:47:00",187595,4.662,359.4,5.512,1.043,18.99,107.9994,19.76,20.59,16.38,0,110.8,13.22,20.58,321.4
"2010-09-24 00:47:30",187596,3.998,10.9,4.577,0.819,18.94,107.9938,19.74,20.59,16.4,0,110.8,13.22,20.56,332.9
"2010-09-24 00:48:00",187597,5.33,1.995,7.04,1.409,18.94,107.985,19.72,20.59,16.6,0,110.8,13.22,20.54,324.0
"2010-09-24 00:48:30",187598,4.664,0.579,7.356,1.495,18.91,107.9679,19.68,20.58,16.76,0,110.8,13.22,20.50,322.6
"2010-09-24 00:49:00",187599,5.348,358.1,7.788,2.071,18.94,107.9676,19.68,20.56,16.96,0,110.8,13.22,20.50,320.1
"2010-09-24 00:49:30",187600,4.01,8.78,5.994,0.984,18.88,107.9665,19.67,20.55,16.94,0,110.8,13.22,20.49,330.8
"2010-09-24 00:50:00",187601,5.799,358,7.875,1.633,18.96,107.9493,19.63,20.54,17.05,0,110.8,13.22,20.45,320.0
"2010-09-24 00:50:30",187602,5.113,359.3,3.764,1.189,18.99,107.9372,19.6,20.51,17.17,0,110.8,13.22,20.42,321.3
"2010-09-24 00:51:00",187603,5.683,359.9,3.924,0.922,18.96,107.9341,19.59,20.5,17.12,0,110.8,13.22,20.41,321.9
"2010-09-24 00:51:30",187604,4.374,3.467,3.503,0.382,18.9,107.9338,19.59,20.5,17.23,0,110.8,13.22,20.41,325.5
"2010-09-24 00:52:00",187605,7.487,353.3,3.46,1.651,19.04,107.9338,19.59,20.49,17.25,0,110.7,13.22,20.41,315.3
"2010-09-24 00:52:30",187606,7.033,353.6,3.161,1.468,19.01,107.9338,19.59,20.49,17.3,0,110.8,13.22,20.41,315.6
"2010-09-24 00:53:00",187607,6.924,354.5,3.482,1.506,18.95,107.9338,19.59,20.48,17.42,0,110.8,13.23,20.41,316.5
"2010-09-24 00:53:30",187608,8.19,352.2,2.851,1.198,18.99,107.9265,19.57,20.46,17.5,0,110.7,13.23,20.39,314.2
"2010-09-24 00:54:00",187609,9.27,351.2,1.614,0.709,19.02,107.911,19.53,20.45,17.51,0,110.8,13.23,20.35,313.2
"2010-09-24 00:54:30",187610,7.039,354.1,4.556,1.526,18.92,107.9006,19.5,20.45,17.54,0,110.7,13.22,20.32,316.1
"2010-09-24 00:55:00",187611,8.28,351.6,3.775,1.269,18.97,107.9001,19.5,20.44,17.67,0,110.8,13.23,20.32,313.6
"2010-09-24 00:55:30",187612,8.55,351.1,2.941,0.95,19.06,107.9001,19.5,20.42,17.75,0,110.8,13.23,20.32,313.1
"2010-09-24 00:56:00",187613,8.23,351,3.416,1.115,18.98,107.8998,19.5,20.41,17.81,0,110.7,13.23,20.32,313.0
"2010-09-24 00:56:30",187614,8.76,350.3,1.623,0.538,19.04,107.8995,19.5,20.4,17.77,0,110.8,13.23,20.32,312.3
"2010-09-24 00:57:00",187615,9.3,347.3,2.715,0.525,19.06,107.8913,19.48,20.4,17.77,0,110.7,13.22,20.30,309.3
"2010-09-24 00:57:30",187616,7.928,352.9,5.314,1.84,18.94,107.8886,19.47,20.38,17.67,0,110.7,13.22,20.29,314.9
"2010-09-24 00:58:00",187617,10.48,346.9,2.219,0.524,19.23,107.8884,19.47,20.4,17.4,0,110.7,13.22,20.29,308.9
"2010-09-24 00:58:30",187618,9.64,347.4,1.742,0.41,19.17,107.8953,19.49,20.37,17.29,0,110.7,13.22,20.31,309.4
"2010-09-24 00:59:00",187619,6.638,352.3,6.382,1.49,19.06,107.902,19.51,20.38,17.27,0,110.7,13.22,20.33,314.3
"2010-09-24 00:59:30",187620,6.5,352.3,2.774,0.57,19,107.9049,19.52,20.39,17.33,0,110.7,13.22,20.34,314.3
"2010-09-24 01:00:00",187621,6.661,349.4,4.654,1.094,18.98,107.9064,19.52,20.41,17.38,0,110.7,13.22,20.34,311.4
"2010-09-24 01:00:30",187622,7.868,347,5.688,0.887,18.94,107.9052,19.52,20.41,17.43,0,110.7,13.22,20.34,309.0
"2010-09-24 01:01:00",187623,8.38,348.9,1.687,0.722,18.97,107.9014,19.51,20.39,17.5,0,110.7,13.22,20.33,310.9
"2010-09-24 01:01:30",187624,7.565,351.8,2.962,1.196,18.9,107.8871,19.47,20.39,17.48,0,110.7,13.22,20.29,313.8
"2010-09-24 01:02:00",187625,4.778,2.112,6.448,1.193,18.77,107.8742,19.44,20.37,17.61,0,110.7,13.23,20.26,324.1
"2010-09-24 01:02:30",187626,5.4,0.672,6.68,1.663,18.86,107.8748,19.44,20.36,17.61,0,110.7,13.23,20.26,322.7
"2010-09-24 01:03:00",187627,5.82,0.055,5.069,1.196,18.87,107.8675,19.42,20.35,17.69,0,110.7,13.23,20.24,322.1
"2010-09-24 01:03:30",187628,5.841,358.6,3.056,0.667,19.09,107.8614,19.4,20.34,17.56,0,110.7,13.23,20.22,320.6
"2010-09-24 01:04:00",187629,5.48,360,3.16,0.949,19.04,107.883,19.46,20.35,17.46,0,110.7,13.23,20.28,322.0
"2010-09-24 01:04:30",187630,6.801,355.4,3.127,1.343,18.95,107.8867,19.47,20.32,17.67,0,110.7,13.23,20.29,317.4
"2010-09-24 01:05:00",187631,7.609,354.9,3.066,1.618,19.01,107.883,19.46,20.33,17.84,0,110.7,13.23,20.28,316.9
"2010-09-24 01:05:30",187632,6.883,357.3,2.726,0.984,19.09,107.8859,19.47,20.32,17.77,0,110.7,13.23,20.29,319.3
"2010-09-24 01:06:00",187633,7.847,355.4,2.493,1.063,19.18,107.893,19.49,20.34,17.7,0,110.7,13.23,20.31,317.4
"2010-09-24 01:06:30",187634,7.314,355.6,1.842,1.039,19.07,107.8948,19.49,20.33,17.46,0,110.7,13.23,20.31,317.6
"2010-09-24 01:07:00",187635,7.47,355.6,2.684,1.164,19.15,107.8973,19.5,20.35,17.45,0,110.7,13.23,20.32,317.6
"2010-09-24 01:07:30",187636,8.15,354.1,2.836,1.426,19.13,107.8979,19.5,20.35,17.7,0,110.7,13.23,20.32,316.1
"2010-09-24 01:08:00",187637,6.789,357,1.502,0.629,19.05,107.8982,19.5,20.36,17.41,0,110.7,13.23,20.32,319.0
"2010-09-24 01:08:30",187638,7.931,354.1,2.293,0.967,19.06,107.8987,19.5,20.39,17.68,0,110.7,13.23,20.32,316.1
"2010-09-24 01:09:00",187639,6.204,358.4,3.459,1.271,19.09,107.9064,19.52,20.39,17.49,0,110.7,13.24,20.34,320.4
"2010-09-24 01:09:30",187640,7.481,357,4.333,1.224,19.11,107.9243,19.57,20.39,17.46,0,110.7,13.23,20.39,319.0
"2010-09-24 01:10:00",187641,7.51,354.4,2.551,1.045,19.1,107.9258,19.57,20.4,17.6,0,110.7,13.24,20.39,316.4
"2010-09-24 01:10:30",187642,4.872,1.17,3.905,0.804,19.01,107.9309,19.58,20.41,17.5,0,110.7,13.24,20.40,323.2
"2010-09-24 01:11:00",187643,6.631,1.118,3.632,0.979,19.08,107.9351,19.59,20.41,17.11,0,110.7,13.24,20.41,323.1
"2010-09-24 01:11:30",187644,6.507,1.462,5.951,0.94,19.07,107.9365,19.6,20.42,17.2,0,110.7,13.24,20.42,323.5
"2010-09-24 01:12:00",187645,6.49,357.3,4.527,1.862,19.03,107.9365,19.6,20.42,17.48,0,110.7,13.24,20.42,319.3
"2010-09-24 01:12:30",187646,7.869,355.1,3.303,1.548,19.13,107.9365,19.6,20.44,17.84,0,110.7,13.24,20.42,317.1
"2010-09-24 01:13:00",187647,5.988,359.7,4.302,1.453,19.08,107.9365,19.6,20.43,17.47,0,110.7,13.24,20.42,321.7
"2010-09-24 01:13:30",187648,4.896,5.333,2.99,0.737,19.07,107.9365,19.6,20.43,17.24,0,110.7,13.23,20.42,327.3
"2010-09-24 01:14:00",187649,5.938,1.945,3.53,0.657,19.12,107.9365,19.6,20.45,16.9,0,110.7,13.23,20.42,323.9
"2010-09-24 01:14:30",187650,5.222,358.1,3.232,1.039,19.12,107.9365,19.6,20.46,17.64,0,110.7,13.23,20.42,320.1
"2010-09-24 01:15:00",187651,6.831,6.668,5.537,1.096,19.12,107.9365,19.6,20.48,16.98,0,110.7,13.23,20.42,328.7
"2010-09-24 01:15:30",187652,7.154,12.13,3.053,0.788,19.15,107.9365,19.6,20.47,16.66,0,110.7,13.23,20.42,334.1
"2010-09-24 01:16:00",187653,6.257,14.59,1.944,0.248,19.07,107.9365,19.6,20.49,16.42,0,110.7,13.23,20.42,336.6
"2010-09-24 01:16:30",187654,7.144,19.39,2.152,0.837,19.08,107.9365,19.6,20.48,16.36,0,110.7,13.23,20.42,341.4
"2010-09-24 01:17:00",187655,7.084,18.66,1.994,0.709,19.07,107.9399,19.61,20.48,16.43,0,110.7,13.23,20.43,340.7
"2010-09-24 01:17:30",187656,5.649,11.73,7.537,0.972,19.08,107.9421,19.61,20.49,16.78,0,110.7,13.23,20.43,333.7
"2010-09-24 01:18:00",187657,5.404,13.84,9.54,0.949,19.02,107.9385,19.6,20.48,16.92,0,110.7,13.23,20.42,335.8
"2010-09-24 01:18:30",187658,6.595,20.51,1.34,0.214,19,107.9365,19.6,20.49,16.57,0,110.7,13.23,20.42,342.5
"2010-09-24 01:19:00",187659,6.601,20.16,1.516,0.415,19,107.9365,19.6,20.49,16.84,0,110.7,13.24,20.42,342.2
"2010-09-24 01:19:30",187660,5.716,17.59,1.21,0.472,19,107.9365,19.6,20.47,17.11,0,110.7,13.24,20.42,339.6
"2010-09-24 01:20:00",187661,5.963,18.48,1.275,0.487,18.99,107.9354,19.59,20.48,17.23,0,110.7,13.24,20.41,340.5
"2010-09-24 01:20:30",187662,6.182,18.94,1.732,0.685,19.02,107.9258,19.57,20.46,17.05,0,110.7,13.24,20.39,340.9
"2010-09-24 01:21:00",187663,5.714,17.7,1.755,0.361,19,107.9227,19.56,20.43,17.49,0,110.7,13.24,20.38,339.7
"2010-09-24 01:21:30",187664,5.181,17.62,2.368,0.615,18.98,107.9086,19.53,20.43,17.55,0,110.7,13.25,20.35,339.6
"2010-09-24 01:22:00",187665,5.403,19.66,3.489,0.397,18.98,107.9027,19.51,20.43,17.57,0,110.7,13.25,20.33,341.7
"2010-09-24 01:22:30",187666,5,17.76,2.778,0.334,18.95,107.9027,19.51,20.41,17.51,0,110.7,13.25,20.33,339.8
"2010-09-24 01:23:00",187667,4.462,17.34,2.62,0.304,18.97,107.9027,19.51,20.41,17.89,0,110.7,13.25,20.33,339.3
"2010-09-24 01:23:30",187668,4.565,17.26,3.504,0.222,18.98,107.9027,19.51,20.4,18,0,110.7,13.25,20.33,339.3
"2010-09-24 01:24:00",187669,4.582,20.65,1.295,0.238,18.92,107.8982,19.5,20.4,17.99,0,110.7,13.25,20.32,342.6
"2010-09-24 01:24:30",187670,4.182,16.52,2.144,0.336,18.93,107.8816,19.46,20.38,18.01,0,110.7,13.24,20.28,338.5
"2010-09-24 01:25:00",187671,3.162,15.89,2.916,0.445,18.95,107.8706,19.43,20.37,18.01,0,110.7,13.25,20.25,337.9
"2010-09-24 01:25:30",187672,2.439,1.351,7.556,0.441,18.98,107.8701,19.43,20.36,18.18,0,110.7,13.25,20.25,323.4
"2010-09-24 01:26:00",187673,2.48,2.272,10.81,1.01,18.92,107.8865,19.47,20.36,18.25,0,110.7,13.25,20.29,324.3
"2010-09-24 01:26:30",187674,3.578,16.76,4.267,0.648,18.94,107.8847,19.46,20.38,18.2,0,110.7,13.25,20.28,338.8
"2010-09-24 01:27:00",187675,4.23,19.42,4.538,0.887,18.94,107.8699,19.43,20.36,18.26,0,110.7,13.25,20.25,341.4
"2010-09-24 01:27:30",187676,3.578,10.69,10.39,1.252,18.87,107.8705,19.43,20.36,18.27,0,110.7,13.25,20.25,332.7
"2010-09-24 01:28:00",187677,5.18,349.9,5.89,0.801,18.93,107.872,19.43,20.33,18.44,0,110.7,13.25,20.25,311.9
"2010-09-24 01:28:30",187678,2.794,3.761,9.24,1.235,18.89,107.8735,19.44,20.32,18.44,0,110.7,13.25,20.25,325.8
"2010-09-24 01:29:00",187679,3.059,16.36,5.61,1.278,18.85,107.8739,19.44,20.32,18.4,0,110.7,13.25,20.26,338.4
"2010-09-24 01:29:30",187680,3.264,10.42,7.078,1.145,18.82,107.8587,19.4,20.32,18.4,0,110.7,13.25,20.22,332.4
"2010-09-24 01:30:00",187681,4.239,22.38,4.777,0.517,18.79,107.8446,19.36,20.28,18.4,0,110.7,13.25,20.18,344.4
"2010-09-24 01:30:30",187682,4.343,18.78,2.649,0.315,18.85,107.8449,19.36,20.27,18.42,0,110.7,13.25,20.18,340.8
"2010-09-24 01:31:00",187683,3.521,14.64,4.839,0.912,18.8,107.8416,19.35,20.25,18.52,0,110.7,13.24,20.17,336.6
"2010-09-24 01:31:30",187684,2.86,5.605,5.054,0.934,18.76,107.8176,19.29,20.24,18.71,0,110.7,13.25,20.11,327.6
"2010-09-24 01:32:00",187685,3.048,10.09,7.17,1.092,18.74,107.8193,19.3,20.21,18.74,0,110.7,13.24,20.12,332.1
"2010-09-24 01:32:30",187686,3.364,18.01,7.135,0.461,18.74,107.8067,19.26,20.18,18.73,0,110.7,13.24,20.08,340.0
"2010-09-24 01:33:00",187687,4.785,24.17,2.903,0.405,18.78,107.7907,19.22,20.17,18.66,0,110.7,13.24,20.04,346.2
"2010-09-24 01:33:30",187688,5.246,19.61,4.877,0.474,18.76,107.7913,19.22,20.15,18.79,0,110.7,13.24,20.04,341.6
"2010-09-24 01:34:00",187689,4.655,29.39,8.28,0.831,18.75,107.7925,19.23,20.13,18.74,0,110.7,13.24,20.05,351.4
"2010-09-24 01:34:30",187690,5.248,27.76,3.272,0.667,18.74,107.7949,19.23,20.12,18.65,0,110.7,13.24,20.05,349.8
"2010-09-24 01:35:00",187691,4.702,29.68,5.894,0.56,18.73,107.7971,19.24,20.1,18.63,0,110.7,13.24,20.06,351.7
"2010-09-24 01:35:30",187692,4.831,34.63,5.619,0.378,18.71,107.7971,19.24,20.08,18.58,0,110.7,13.25,20.06,356.6
"2010-09-24 01:36:00",187693,4.865,27.16,5.103,0.544,18.75,107.7974,19.24,20.06,18.83,0,110.7,13.25,20.06,349.2
"2010-09-24 01:36:30",187694,4.963,21.12,8.11,0.56,18.84,107.7975,19.24,20.07,18.86,0,110.7,13.25,20.06,343.1
"2010-09-24 01:37:00",187695,6.903,40.67,2.602,0.316,18.72,107.7996,19.25,20.08,18.68,0,110.7,13.25,20.06,2.7
"2010-09-24 01:37:30",187696,5.486,41.47,3.141,0.564,18.6,107.7925,19.23,20.05,18.53,0,110.7,13.25,20.05,3.5
"2010-09-24 01:38:00",187697,4.803,51.77,5.338,0.48,18.62,107.7722,19.18,20.07,18.46,0,110.7,13.25,19.99,13.8
"2010-09-24 01:38:30",187698,4.089,57.42,6.319,0.498,18.64,107.77,19.17,20.06,18.4,0,110.7,13.25,19.99,19.4
"2010-09-24 01:39:00",187699,3.729,40.99,6.76,0.348,18.61,107.7703,19.17,20.04,18.45,0,110.7,13.25,19.99,3.0
"2010-09-24 01:39:30",187700,4.358,46.84,9.83,0.343,18.63,107.77,19.17,20.02,18.88,0,110.7,13.25,19.99,8.8
"2010-09-24 01:40:00",187701,4.213,58.78,5.266,0.424,18.68,107.77,19.17,20,18.8,0,110.7,13.25,19.99,20.8
"2010-09-24 01:40:30",187702,5.321,48.11,8.15,0.565,18.64,107.7624,19.15,20.01,18.86,0,110.7,13.25,19.97,10.1
"2010-09-24 01:41:00",187703,4.256,43.33,3.14,0.403,18.56,107.7466,19.11,20,19.01,0,110.6,13.25,19.93,5.3
"2010-09-24 01:41:30",187704,3.118,75.98,8.61,0.191,18.51,107.7396,19.09,19.98,18.68,0,110.6,13.26,19.91,38.0
"2010-09-24 01:42:00",187705,3.641,70.5,4.325,0.37,18.57,107.7365,19.08,19.96,18.56,0,110.6,13.26,19.90,32.5
"2010-09-24 01:42:30",187706,4.133,69.87,2.237,0.169,18.45,107.7362,19.08,19.95,18.61,0,110.6,13.26,19.90,31.9
"2010-09-24 01:43:00",187707,3.516,68.36,2.153,0.245,18.4,107.708,19.01,19.92,18.65,0,110.6,13.26,19.83,30.4
"2010-09-24 01:43:30",187708,3.388,65.62,2.21,0.406,18.49,107.7024,19,19.91,18.76,0,110.6,13.26,19.81,27.6
"2010-09-24 01:44:00",187709,3.857,68.3,3.39,0.503,18.42,107.6788,18.94,19.84,18.74,0,110.6,13.26,19.75,30.3
"2010-09-24 01:44:30",187710,4.154,63.99,6.591,0.254,18.61,107.6689,18.91,19.84,18.77,0,110.6,13.26,19.73,26.0
"2010-09-24 01:45:00",187711,3.92,65.44,7.595,0.315,18.63,107.6785,18.93,19.83,18.85,0,110.6,13.26,19.75,27.4
"2010-09-24 01:45:30",187712,3.111,52.08,2.892,0.717,18.62,107.6926,18.97,19.84,19.04,0,110.6,13.26,19.79,14.1
"2010-09-24 01:46:00",187713,2.589,62.51,15.3,0.317,18.56,107.7019,18.99,19.84,19.17,0,110.6,13.26,19.81,24.5
"2010-09-24 01:46:30",187714,2.438,54.28,11.89,0.503,18.54,107.7027,19,19.85,19.23,0,110.6,13.26,19.82,16.3
"2010-09-24 01:47:00",187715,2.194,53.04,7.569,0.301,18.58,107.7027,19,19.84,19.29,0,110.6,13.26,19.82,15.0
"2010-09-24 01:47:30",187716,2.936,66.49,7.04,0.248,18.58,107.7027,19,19.86,19.32,0,110.6,13.25,19.82,28.5
"2010-09-24 01:48:00",187717,3.03,74.96,8.23,0.324,18.71,107.7027,19,19.86,19.21,0,110.6,13.25,19.82,37.0
"2010-09-24 01:48:30",187718,3.013,91.7,10.6,0.702,18.72,107.7027,19,19.86,18.88,0,110.6,13.25,19.82,53.7